When you browse on this site, cookies collect data to enhance your experience and personalize the content and advertising you see.
Visit our Privacy Policy to learn more. By continuing to use the site, you agree to this use of cookies and data.
  • în România
  • Lista ţărilor
  • Pe 7 zile
  • Temperatura apei
  • Hartă satelitară
  • Meteo pe hartă
  • Widget-uri
  • user-avatar
    Intrare

    Meteo pe oră la Solden

    Astăzi, 25 Iunie, Marţi

    Timp Temperatura Precipitaţii Vânt Presiune Umiditate
    00:00 +8°C° 0 mm 0 m/s 589 mmHg 93%
    01:00 +9°C° 0 mm 0 m/s 589 mmHg 91%
    02:00 +9°C° 0 mm 0 m/s 589 mmHg 91%
    03:00 +8°C° 0 mm 0 m/s 589 mmHg 90%
    04:00 +9°C° 0 mm 1 m/s 589 mmHg 90%
    05:00 +10°C° 0 mm 0 m/s 590 mmHg 86%
    06:00 +11°C° 0 mm 0 m/s 590 mmHg 83%
    07:00 +13°C° 0 mm 0 m/s 592 mmHg 77%
    08:00 +16°C° 0 mm 1 m/s 592 mmHg 69%
    09:00 +19°C° 0 mm 1 m/s 593 mmHg 61%
    10:00 +21°C° 0 mm 1 m/s 594 mmHg 53%
    11:00 +22°C° 0.1 mm 1 m/s 594 mmHg 51%
    12:00 +22°C° 0.1 mm 1 m/s 595 mmHg 48%
    13:00 +23°C° 0.1 mm 2 m/s 595 mmHg 45%
    14:00 +23°C° 0.1 mm 2 m/s 595 mmHg 46%
    15:00 +23°C° 0.1 mm 2 m/s 595 mmHg 46%
    16:00 +23°C° 0.1 mm 2 m/s 595 mmHg 46%
    17:00 +21°C° 0.3 mm 2 m/s 595 mmHg 58%
    18:00 +20°C° 0.3 mm 1 m/s 594 mmHg 69%
    19:00 +18°C° 0.3 mm 1 m/s 594 mmHg 80%
    20:00 +16°C° 0.2 mm 1 m/s 593 mmHg 81%
    21:00 +14°C° 0.2 mm 1 m/s 592 mmHg 83%
    22:00 +12°C° 0.2 mm 1 m/s 592 mmHg 85%
    23:00 +12°C° 0 mm 1 m/s 592 mmHg 83%

    Mâine, 26 Iunie, Miercuri

    Timp Temperatura Precipitaţii Vânt Presiune Umiditate
    00:00 +11°C° 0 mm 1 m/s 592 mmHg 81%
    01:00 +11°C° 0 mm 1 m/s 591 mmHg 80%
    02:00 +10°C° 0 mm 1 m/s 591 mmHg 77%
    03:00 +10°C° 0 mm 1 m/s 591 mmHg 74%
    04:00 +10°C° 0 mm 1 m/s 590 mmHg 70%
    05:00 +12°C° 0 mm 1 m/s 592 mmHg 66%
    06:00 +14°C° 0 mm 1 m/s 593 mmHg 61%
    07:00 +16°C° 0 mm 1 m/s 594 mmHg 56%
    08:00 +20°C° 0 mm 1 m/s 595 mmHg 49%
    09:00 +22°C° 0 mm 1 m/s 596 mmHg 42%
    10:00 +24°C° 0 mm 1 m/s 597 mmHg 35%
    11:00 +25°C° 0 mm 1 m/s 597 mmHg 33%
    12:00 +25°C° 0 mm 1 m/s 597 mmHg 30%
    13:00 +26°C° 0 mm 1 m/s 598 mmHg 27%
    14:00 +26°C° 0 mm 2 m/s 598 mmHg 28%
    15:00 +26°C° 0 mm 2 m/s 597 mmHg 29%
    16:00 +26°C° 0 mm 2 m/s 597 mmHg 30%
    17:00 +24°C° 0.1 mm 1 m/s 596 mmHg 44%
    18:00 +22°C° 0.1 mm 1 m/s 595 mmHg 58%
    19:00 +20°C° 0.1 mm 1 m/s 595 mmHg 71%
    20:00 +18°C° 0.1 mm 1 m/s 594 mmHg 74%
    21:00 +16°C° 0.1 mm 1 m/s 593 mmHg 76%
    22:00 +14°C° 0.1 mm 1 m/s 593 mmHg 78%
    23:00 +13°C° 0 mm 1 m/s 592 mmHg 76%

    Poimâine, 27 Iunie, Joi

    Timp Temperatura Precipitaţii Vânt Presiune Umiditate
    00:00 +13°C° 0 mm 1 m/s 592 mmHg 73%
    01:00 +12°C° 0 mm 1 m/s 592 mmHg 70%
    02:00 +12°C° 0 mm 1 m/s 592 mmHg 67%
    03:00 +12°C° 0 mm 2 m/s 591 mmHg 65%
    04:00 +12°C° 0 mm 2 m/s 591 mmHg 62%
    05:00 +14°C° 0 mm 1 m/s 592 mmHg 59%
    06:00 +16°C° 0 mm 1 m/s 593 mmHg 56%
    07:00 +19°C° 0 mm 1 m/s 594 mmHg 52%
    08:00 +21°C° 0 mm 1 m/s 594 mmHg 45%
    09:00 +23°C° 0 mm 1 m/s 595 mmHg 37%
    10:00 +25°C° 0 mm 1 m/s 596 mmHg 29%
    11:00 +26°C° 0 mm 2 m/s 596 mmHg 27%
    12:00 +27°C° 0 mm 2 m/s 596 mmHg 25%
    13:00 +27°C° 0 mm 2 m/s 596 mmHg 23%
    14:00 +27°C° 0 mm 3 m/s 596 mmHg 24%
    15:00 +27°C° 0 mm 3 m/s 596 mmHg 25%
    16:00 +26°C° 0 mm 3 m/s 595 mmHg 26%
    17:00 +25°C° 0 mm 3 m/s 594 mmHg 34%
    18:00 +23°C° 0 mm 2 m/s 593 mmHg 41%
    19:00 +20°C° 0 mm 2 m/s 592 mmHg 49%
    20:00 +18°C° 0 mm 2 m/s 591 mmHg 52%
    21:00 +16°C° 0 mm 2 m/s 591 mmHg 54%
    22:00 +13°C° 0 mm 3 m/s 590 mmHg 57%
    23:00 +13°C° 0 mm 3 m/s 590 mmHg 61%

    28 Iunie, Vineri

    Timp Temperatura Precipitaţii Vânt Presiune Umiditate
    00:00 +12°C° 0 mm 3 m/s 589 mmHg 65%
    01:00 +11°C° 0 mm 3 m/s 589 mmHg 69%
    02:00 +11°C° 0 mm 3 m/s 589 mmHg 71%
    03:00 +12°C° 0 mm 2 m/s 589 mmHg 72%
    04:00 +10°C° 0 mm 2 m/s 588 mmHg 74%
    05:00 +13°C° 0 mm 2 m/s 589 mmHg 71%
    06:00 +14°C° 0 mm 2 m/s 590 mmHg 68%
    07:00 +16°C° 0 mm 2 m/s 590 mmHg 66%
    08:00 +19°C° 0 mm 1 m/s 591 mmHg 56%
    09:00 +21°C° 0 mm 1 m/s 592 mmHg 47%
    10:00 +22°C° 0 mm 1 m/s 593 mmHg 37%
    11:00 +23°C° 0 mm 1 m/s 593 mmHg 34%
    12:00 +24°C° 0 mm 2 m/s 593 mmHg 32%
    13:00 +25°C° 0 mm 2 m/s 593 mmHg 29%
    14:00 +25°C° 0 mm 2 m/s 593 mmHg 31%
    15:00 +24°C° 0 mm 2 m/s 593 mmHg 32%
    16:00 +24°C° 0 mm 2 m/s 593 mmHg 34%
    17:00 +21°C° 0.3 mm 2 m/s 592 mmHg 47%
    18:00 +20°C° 0.3 mm 1 m/s 591 mmHg 59%
    19:00 +18°C° 0.3 mm 1 m/s 590 mmHg 72%
    20:00 +15°C° 0.2 mm 1 m/s 590 mmHg 74%
    21:00 +13°C° 0.2 mm 1 m/s 589 mmHg 76%
    22:00 +10°C° 0.2 mm 2 m/s 588 mmHg 78%
    23:00 +10°C° 0 mm 1 m/s 588 mmHg 78%

    29 Iunie, Sâmbătă

    Timp Temperatura Precipitaţii Vânt Presiune Umiditate
    00:00 +10°C° 0 mm 1 m/s 588 mmHg 78%
    01:00 +9°C° 0 mm 1 m/s 587 mmHg 78%
    02:00 +9°C° 0 mm 1 m/s 587 mmHg 77%
    03:00 +8°C° 0 mm 1 m/s 587 mmHg 77%
    04:00 +8°C° 0 mm 1 m/s 587 mmHg 76%
    05:00 +9°C° 0 mm 0 m/s 587 mmHg 70%
    06:00 +11°C° 0 mm 0 m/s 588 mmHg 65%
    07:00 +12°C° 0 mm 0 m/s 589 mmHg 60%
    08:00 +14°C° 0 mm 0 m/s 590 mmHg 56%
    09:00 +18°C° 0 mm 1 m/s 591 mmHg 52%
    10:00 +19°C° 0 mm 1 m/s 592 mmHg 48%
    11:00 +20°C° 0 mm 1 m/s 592 mmHg 47%
    12:00 +20°C° 0 mm 2 m/s 592 mmHg 46%
    13:00 +21°C° 0 mm 2 m/s 592 mmHg 45%
    14:00 +21°C° 0 mm 2 m/s 592 mmHg 48%
    15:00 +20°C° 0 mm 2 m/s 592 mmHg 51%
    16:00 +20°C° 0 mm 2 m/s 592 mmHg 54%
    17:00 +19°C° 0.1 mm 2 m/s 591 mmHg 63%
    18:00 +17°C° 0.1 mm 2 m/s 590 mmHg 73%
    19:00 +16°C° 0.1 mm 1 m/s 590 mmHg 82%
    20:00 +14°C° 0 mm 1 m/s 589 mmHg 87%
    21:00 +13°C° 0 mm 1 m/s 589 mmHg 92%
    22:00 +10°C° 0 mm 0 m/s 589 mmHg 96%
    23:00 +10°C° 0 mm 0 m/s 588 mmHg 96%

    30 Iunie, Duminică

    Timp Temperatura Precipitaţii Vânt Presiune Umiditate
    00:00 +10°C° 0 mm 0 m/s 588 mmHg 96%
    01:00 +10°C° 0 mm 0 m/s 588 mmHg 96%
    02:00 +10°C° 0 mm 0 m/s 588 mmHg 96%
    03:00 +9°C° 0 mm 0 m/s 588 mmHg 95%
    04:00 +9°C° 0 mm 0 m/s 587 mmHg 95%
    05:00 +11°C° 0 mm 0 m/s 588 mmHg 89%
    06:00 +12°C° 0 mm 0 m/s 589 mmHg 84%
    07:00 +13°C° 0 mm 0 m/s 590 mmHg 79%
    08:00 +15°C° 0 mm 0 m/s 590 mmHg 70%
    09:00 +19°C° 0 mm 1 m/s 591 mmHg 62%
    10:00 +21°C° 0 mm 1 m/s 592 mmHg 53%
    11:00 +22°C° 0.2 mm 1 m/s 593 mmHg 50%
    12:00 +23°C° 0.2 mm 1 m/s 593 mmHg 47%
    13:00 +24°C° 0.2 mm 2 m/s 593 mmHg 44%
    14:00 +23°C° 0.2 mm 2 m/s 593 mmHg 45%
    15:00 +23°C° 0.2 mm 2 m/s 593 mmHg 46%
    16:00 +23°C° 0.2 mm 2 m/s 593 mmHg 47%
    17:00 +21°C° 0.5 mm 2 m/s 592 mmHg 58%
    18:00 +20°C° 0.5 mm 1 m/s 591 mmHg 68%
    19:00 +18°C° 0.5 mm 1 m/s 591 mmHg 79%
    20:00 +16°C° 0.2 mm 1 m/s 590 mmHg 82%
    21:00 +14°C° 0.2 mm 1 m/s 589 mmHg 84%
    22:00 +12°C° 0.2 mm 1 m/s 589 mmHg 86%
    23:00 +12°C° 0 mm 1 m/s 589 mmHg 86%
    Arată mai mult